�������l�o���
Date,Time,MP-1(��Sv/h),MP-2(��Sv/h),MP-3(��Sv/h),MP-4(��Sv/h),MP-5(��Sv/h),MP-6(��Sv/h),MP-7(��Sv/h),MP-8(��Sv/h),����,����(m/s),���J
2018/08/10,00:00,0.809,1.162,0.828,1.481,1.028,0.461,0.810,0.768,��,0.9,��
2018/08/10,00:10,0.808,1.161,0.827,1.480,1.030,0.462,0.810,0.768,��쓌,1.5,��
2018/08/10,00:20,0.809,1.165,0.825,1.481,1.030,0.462,0.809,0.766,��쓌,2.9,��
2018/08/10,00:30,0.806,1.162,0.825,1.482,1.031,0.461,0.809,0.767,��쓌,4.8,��
2018/08/10,00:40,0.809,1.165,0.826,1.480,1.030,0.461,0.810,0.766,�쓌,4.0,��
2018/08/10,00:50,0.810,1.162,0.826,1.483,1.030,0.461,0.811,0.767,��쓌,4.3,��
2018/08/10,01:00,0.807,1.163,0.826,1.483,1.030,0.461,0.810,0.769,�쓌,4.1,��
2018/08/10,01:10,0.808,1.163,0.827,1.485,1.031,0.462,0.812,0.768,��쓌,4.7,��
2018/08/10,01:20,0.807,1.164,0.827,1.483,1.033,0.461,0.809,0.768,��쓌,4.2,��
2018/08/10,01:30,0.809,1.164,0.830,1.482,1.031,0.462,0.811,0.769,��쓌,4.1,��
2018/08/10,01:40,0.808,1.163,0.828,1.483,1.031,0.461,0.810,0.769,��쓌,3.9,��
2018/08/10,01:50,0.808,1.162,0.828,1.483,1.031,0.461,0.808,0.769,��쓌,2.3,��
2018/08/10,02:00,0.807,1.164,0.828,1.482,1.032,0.462,0.812,0.768,�쓌,1.7,��
2018/08/10,02:10,0.808,1.165,0.827,1.484,1.034,0.460,0.811,0.769,�쓌,2.2,��
2018/08/10,02:20,0.809,1.166,0.828,1.486,1.033,0.462,0.811,0.768,��쓌,0.9,��
2018/08/10,02:30,0.808,1.165,0.827,1.482,1.034,0.462,0.810,0.769,��쓌,0.9,��
2018/08/10,02:40,0.807,1.167,0.827,1.483,1.035,0.461,0.809,0.768,-,CALM,��
2018/08/10,02:50,0.809,1.168,0.827,1.484,1.034,0.463,0.812,0.768,-,CALM,��
2018/08/10,03:00,0.809,1.166,0.827,1.483,1.034,0.463,0.809,0.768,-,CALM,��
2018/08/10,03:10,0.810,1.167,0.827,1.484,1.035,0.462,0.811,0.770,�k�k��,0.9,��
2018/08/10,03:20,0.807,1.167,0.828,1.483,1.038,0.463,0.811,0.771,��,0.8,��
2018/08/10,03:30,0.810,1.168,0.828,1.486,1.036,0.461,0.813,0.768,-,CALM,��
2018/08/10,03:40,0.810,1.169,0.829,1.484,1.036,0.462,0.809,0.770,-,CALM,��
2018/08/10,03:50,0.809,1.170,0.829,1.483,1.036,0.463,0.811,0.772,-,CALM,��
2018/08/10,04:00,0.809,1.167,0.828,1.484,1.037,0.462,0.810,0.769,���k��,0.9,��
2018/08/10,04:10,0.810,1.167,0.828,1.484,1.037,0.462,0.810,0.770,���쓌,1.1,��
2018/08/10,04:20,0.811,1.169,0.827,1.486,1.038,0.463,0.811,0.769,�쓌,1.1,��
2018/08/10,04:30,0.809,1.170,0.826,1.484,1.038,0.462,0.810,0.770,�쓌,0.9,��
2018/08/10,04:40,0.809,1.170,0.829,1.485,1.037,0.463,0.810,0.770,���k��,0.6,��
2018/08/10,04:50,0.810,1.171,0.827,1.483,1.037,0.462,0.812,0.769,�k�k��,0.9,��
2018/08/10,05:00,0.809,1.167,0.828,1.486,1.036,0.463,0.809,0.770,-,CALM,��
2018/08/10,05:10,0.811,1.171,0.830,1.485,1.039,0.462,0.810,0.771,�k��,0.9,��
2018/08/10,05:20,0.811,1.167,0.828,1.483,1.038,0.461,0.810,0.770,-,CALM,��
2018/08/10,05:30,0.808,1.170,0.828,1.487,1.036,0.463,0.811,0.771,���쐼,0.6,��
2018/08/10,05:40,0.812,1.170,0.829,1.486,1.040,0.464,0.812,0.770,�k,1.2,��
2018/08/10,05:50,0.812,1.168,0.829,1.487,1.039,0.464,0.811,0.771,�k�k��,3.1,��
2018/08/10,06:00,0.811,1.169,0.829,1.486,1.039,0.462,0.812,0.771,�k��,4.7,��
2018/08/10,06:10,0.812,1.171,0.829,1.485,1.042,0.464,0.811,0.770,�k��,5.8,��
2018/08/10,06:20,0.813,1.169,0.829,1.485,1.039,0.464,0.812,0.770,���k��,5.4,��
2018/08/10,06:30,0.812,1.170,0.829,1.487,1.040,0.464,0.812,0.772,���k��,4.7,��
2018/08/10,06:40,0.812,1.172,0.830,1.488,1.041,0.464,0.811,0.771,��,4.6,��
2018/08/10,06:50,0.811,1.168,0.829,1.486,1.039,0.464,0.813,0.771,��,4.6,��
2018/08/10,07:00,0.812,1.174,0.831,1.487,1.038,0.464,0.812,0.772,���k��,3.5,��
2018/08/10,07:10,0.813,1.169,0.829,1.488,1.040,0.462,0.813,0.770,���쓌,1.1,��
2018/08/10,07:20,0.813,1.169,0.829,1.489,1.041,0.464,0.813,0.773,��,0.8,��
2018/08/10,07:30,0.813,1.170,0.830,1.487,1.041,0.463,0.811,0.771,���k��,1.5,��
2018/08/10,07:40,0.812,1.171,0.832,1.485,1.043,0.463,0.813,0.771,���k��,3.0,��
2018/08/10,07:50,0.812,1.171,0.831,1.489,1.041,0.465,0.814,0.771,�k��,0.8,��
2018/08/10,08:00,0.813,1.173,0.831,1.488,1.041,0.463,0.812,0.768,�k,1.9,��
2018/08/10,08:10,0.813,1.176,0.831,1.488,1.041,0.463,0.813,0.768,�k�k��,0.8,��
2018/08/10,08:20,0.812,1.175,0.828,1.488,1.043,0.464,0.815,0.769,��,1.2,��
2018/08/10,08:30,0.815,1.177,0.829,1.489,1.045,0.463,0.814,0.770,���쓌,1.5,��
2018/08/10,08:40,0.811,1.176,0.830,1.488,1.042,0.464,0.812,0.771,�쓌,1.7,��
2018/08/10,08:50,0.814,1.178,0.828,1.493,1.046,0.463,0.816,0.770,�쓌,2.3,��
2018/08/10,09:00,0.814,1.178,0.829,1.490,1.047,0.464,0.815,0.770,�쓌,3.0,��
2018/08/10,09:10,0.815,1.177,0.831,1.491,1.048,0.465,0.814,0.771,��쓌,3.0,��
2018/08/10,09:20,0.817,1.177,0.831,1.493,1.049,0.465,0.815,0.771,��쓌,2.3,��
2018/08/10,09:30,0.816,1.181,0.831,1.491,1.049,0.465,0.815,0.771,��쓌,2.8,��
2018/08/10,09:40,0.816,1.183,0.833,1.492,1.053,0.466,0.814,0.774,��쓌,3.6,��
2018/08/10,09:50,0.817,1.184,0.834,1.491,1.051,0.465,0.815,0.773,��쓌,3.5,��
2018/08/10,10:00,0.817,1.183,0.832,1.491,1.053,0.465,0.816,0.774,��쓌,2.9,��
2018/08/10,10:10,0.818,1.185,0.834,1.492,1.054,0.466,0.815,0.773,��쓌,3.3,��
2018/08/10,10:20,0.819,1.187,0.834,1.493,1.056,0.466,0.816,0.772,��쓌,4.6,��
2018/08/10,10:30,0.820,1.188,0.834,1.493,1.055,0.467,0.817,0.770,��쓌,3.5,��
2018/08/10,10:40,0.820,1.184,0.836,1.496,1.059,0.465,0.817,0.774,��쓌,4.1,��
2018/08/10,10:50,0.820,1.189,0.835,1.496,1.066,0.465,0.817,0.772,��쓌,3.4,��
2018/08/10,11:00,0.821,1.189,0.834,1.494,1.059,0.468,0.816,0.774,��쓌,4.8,��
2018/08/10,11:10,0.821,1.189,0.837,1.497,1.059,0.467,0.817,0.773,�쓌,4.6,��
2018/08/10,11:20,0.822,1.189,0.837,1.496,1.059,0.467,0.818,0.773,��쓌,4.9,��
2018/08/10,11:30,0.822,1.192,0.838,1.493,1.060,0.467,0.818,0.775,��쓌,4.8,��
2018/08/10,11:40,0.823,1.194,0.841,1.493,1.061,0.467,0.818,0.774,��쓌,4.6,��
2018/08/10,11:50,0.824,1.192,0.839,1.495,1.059,0.467,0.818,0.775,�쓌,3.8,��
2018/08/10,12:00,0.824,1.195,0.842,1.494,1.062,0.467,0.819,0.773,��쓌,4.4,��
2018/08/10,12:10,0.823,1.195,0.840,1.495,1.063,0.469,0.821,0.776,��쓌,4.6,��
2018/08/10,12:20,0.824,1.195,0.841,1.498,1.061,0.469,0.818,0.776,��쓌,4.5,��
2018/08/10,12:30,0.825,1.197,0.841,1.496,1.061,0.467,0.821,0.774,��쓌,3.2,��
2018/08/10,12:40,0.824,1.199,0.840,1.501,1.064,0.468,0.820,0.775,��쓌,5.0,��
2018/08/10,12:50,0.824,1.200,0.841,1.495,1.066,0.468,0.819,0.776,�쓌,3.6,��
2018/08/10,13:00,0.825,1.199,0.841,1.496,1.065,0.468,0.819,0.775,�쓌,3.3,��
2018/08/10,13:10,0.826,1.200,0.841,1.497,1.069,0.469,0.821,0.774,��쓌,4.5,��
2018/08/10,13:20,0.823,1.199,0.841,1.500,1.066,0.468,0.820,0.777,��쓌,5.8,��
2018/08/10,13:30,0.826,1.201,0.840,1.503,1.066,0.469,0.821,0.775,��쓌,6.0,��
2018/08/10,13:40,0.825,1.200,0.841,1.499,1.066,0.467,0.819,0.776,��쓌,6.1,��
2018/08/10,13:50,0.825,1.198,0.842,1.499,1.068,0.467,0.820,0.775,��쓌,7.1,��
2018/08/10,14:00,0.824,1.199,0.843,1.499,1.071,0.469,0.821,0.775,��쓌,6.7,��
2018/08/10,14:10,0.825,1.197,0.842,1.500,1.072,0.466,0.822,0.776,��쓌,6.4,��
2018/08/10,14:20,0.825,1.200,0.843,1.501,1.073,0.466,0.822,0.777,��,6.8,��
2018/08/10,14:30,0.825,1.199,0.843,1.502,1.072,0.469,0.823,0.777,��쓌,7.4,��
2018/08/10,14:40,0.824,1.200,0.846,1.502,1.072,0.470,0.823,0.778,��쓌,6.7,��
2018/08/10,14:50,0.826,1.199,0.842,1.502,1.074,0.467,0.824,0.776,��,6.4,��
2018/08/10,15:00,0.825,1.203,0.843,1.502,1.071,0.467,0.823,0.777,��쓌,6.4,��
2018/08/10,15:10,0.826,1.203,0.845,1.503,1.074,0.467,0.822,0.777,��쓌,6.1,��
2018/08/10,15:20,0.823,1.202,0.842,1.502,1.073,0.467,0.826,0.776,��쓌,5.6,��
2018/08/10,15:30,0.824,1.201,0.844,1.503,1.073,0.468,0.823,0.776,��쓌,4.7,��
2018/08/10,15:40,0.825,1.203,0.843,1.502,1.071,0.468,0.822,0.777,��,3.7,��
2018/08/10,15:50,0.825,1.201,0.844,1.504,1.071,0.468,0.821,0.778,��쓌,4.1,��
2018/08/10,16:00,0.826,1.201,0.844,1.504,1.073,0.467,0.820,0.777,��쓌,3.6,��
2018/08/10,16:10,0.826,1.201,0.845,1.503,1.071,0.467,0.821,0.778,��쓌,3.1,��
2018/08/10,16:20,0.826,1.202,0.844,1.503,1.071,0.466,0.822,0.779,�쓌,2.6,��
2018/08/10,16:30,0.826,1.202,0.842,1.507,1.075,0.468,0.821,0.777,�쓌,2.8,��
2018/08/10,16:40,0.828,1.203,0.844,1.507,1.073,0.468,0.819,0.777,�쓌,1.7,��
2018/08/10,16:50,0.824,1.202,0.844,1.506,1.074,0.467,0.822,0.777,���쓌,1.7,��
2018/08/10,17:00,0.825,1.204,0.845,1.505,1.073,0.468,0.820,0.777,��,2.6,��
2018/08/10,17:10,0.825,1.204,0.841,1.506,1.071,0.466,0.822,0.776,��,3.6,��
2018/08/10,17:20,0.828,1.205,0.843,1.505,1.071,0.466,0.821,0.775,���k��,2.6,��
2018/08/10,17:30,0.824,1.203,0.845,1.504,1.070,0.467,0.822,0.776,��,2.6,�L
2018/08/10,17:40,0.823,1.204,0.841,1.505,1.073,0.466,0.820,0.777,���k��,2.3,�L
2018/08/10,17:50,0.823,1.204,0.842,1.506,1.072,0.466,0.820,0.777,��,2.6,�L
2018/08/10,18:00,0.822,1.204,0.842,1.508,1.071,0.468,0.820,0.777,�k�k��,2.5,�L
2018/08/10,18:10,0.824,1.205,0.843,1.507,1.071,0.466,0.820,0.775,�k�k��,2.2,��
2018/08/10,18:20,0.823,1.204,0.844,1.506,1.070,0.466,0.820,0.777,�k,2.5,��
2018/08/10,18:30,0.823,1.204,0.843,1.505,1.071,0.465,0.822,0.774,�k,2.3,��
2018/08/10,18:40,0.823,1.206,0.843,1.507,1.073,0.466,0.821,0.775,�k,2.2,��
2018/08/10,18:50,0.824,1.205,0.844,1.505,1.072,0.467,0.821,0.775,�k,1.5,��
2018/08/10,19:00,0.823,1.206,0.844,1.508,1.075,0.466,0.819,0.775,�k�k��,2.0,��
2018/08/10,19:10,0.825,1.203,0.844,1.508,1.071,0.465,0.820,0.776,�k�k��,3.0,��
2018/08/10,19:20,0.824,1.205,0.843,1.507,1.073,0.466,0.820,0.778,�k,3.3,��
2018/08/10,19:30,0.823,1.206,0.843,1.506,1.075,0.466,0.818,0.776,�k,3.3,�L
2018/08/10,19:40,0.823,1.206,0.843,1.509,1.075,0.466,0.820,0.777,�k,3.9,�L
2018/08/10,19:50,0.823,1.204,0.843,1.508,1.075,0.465,0.819,0.776,�k,3.8,�L
2018/08/10,20:00,0.822,1.205,0.842,1.505,1.075,0.466,0.821,0.776,�k�k��,3.4,��
2018/08/10,20:10,0.823,1.204,0.844,1.507,1.073,0.467,0.819,0.776,�k�k��,4.2,��
2018/08/10,20:20,0.824,1.204,0.842,1.507,1.073,0.466,0.820,0.776,�k�k��,3.6,��
2018/08/10,20:30,0.824,1.204,0.843,1.505,1.072,0.465,0.818,0.775,�k�k��,4.2,��
2018/08/10,20:40,0.823,1.205,0.843,1.507,1.071,0.465,0.819,0.776,�k,4.6,��
2018/08/10,20:50,0.823,1.205,0.842,1.504,1.074,0.466,0.819,0.776,�k�k��,3.4,�L
2018/08/10,21:00,0.823,1.203,0.845,1.506,1.071,0.466,0.821,0.775,�k,2.5,�L
2018/08/10,21:10,0.822,1.203,0.845,1.506,1.073,0.466,0.820,0.775,�k�k��,2.6,�L
2018/08/10,21:20,0.823,1.203,0.843,1.506,1.074,0.466,0.822,0.775,�k,3.2,�L
2018/08/10,21:30,0.822,1.202,0.844,1.507,1.074,0.465,0.820,0.776,�k,3.2,�L
2018/08/10,21:40,0.823,1.204,0.843,1.507,1.073,0.468,0.819,0.774,�k�k��,3.5,�L
2018/08/10,21:50,0.822,1.204,0.844,1.508,1.072,0.466,0.822,0.776,�k�k��,4.6,�L
2018/08/10,22:00,0.822,1.200,0.844,1.507,1.074,0.466,0.820,0.777,�k�k��,3.8,�L
2018/08/10,22:10,0.822,1.203,0.843,1.507,1.074,0.465,0.820,0.775,�k,4.1,�L
2018/08/10,22:20,0.821,1.201,0.842,1.506,1.072,0.465,0.821,0.775,�k�k��,3.3,�L
2018/08/10,22:30,0.821,1.200,0.841,1.506,1.070,0.465,0.819,0.777,�k,2.8,�L
2018/08/10,22:40,0.819,1.199,0.841,1.507,1.071,0.465,0.820,0.776,�k,3.1,�L
2018/08/10,22:50,0.819,1.203,0.842,1.508,1.073,0.466,0.818,0.777,�k�k��,3.0,�L
2018/08/10,23:00,0.823,1.201,0.842,1.506,1.073,0.464,0.820,0.777,�k�k��,3.5,�L
2018/08/10,23:10,0.821,1.200,0.842,1.504,1.073,0.466,0.821,0.776,�k,3.2,��
2018/08/10,23:20,0.821,1.204,0.843,1.506,1.072,0.466,0.820,0.776,�k,2.6,�L
2018/08/10,23:30,0.821,1.203,0.842,1.509,1.074,0.466,0.820,0.777,�k�k��,2.6,�L
2018/08/10,23:40,0.821,1.201,0.842,1.506,1.072,0.466,0.820,0.777,�k�k��,3.6,�L
2018/08/10,23:50,0.822,1.201,0.843,1.504,1.073,0.466,0.821,0.778,�k,2.9,�L
